Weather History for Pompano Beach, FL

Change the Weather History Date:

Thursday, November 15, 2012

  Actual Average Record
Temperature  
Mean Temperature 72 °F -  
Max Temperature 79 °F 81 °F 88 °F (1951)
Min Temperature 64 °F 64 °F 44 °F (1975)
Cooling Degree Days 6    
Growing Degree Days 22 (Base 50)    
Moisture  
Dew Point 64 °F    
Average Humidity 76    
Maximum Humidity 97    
Minimum Humidity 52    
Precipitation  
Precipitation 0.03 in - - ()
Sea Level Pressure  
Sea Level Pressure 30.07 in    
Wind  
Wind Speed 5 mph (NNE)    
Max Wind Speed 10 mph    
Max Gust Speed -    
Visibility 10 miles    
Events Rain    
Averages and records for this station are not official NWS values.
T = Trace of Precipitation, MM = Missing Value Source: NWS Daily Summary

Daily Weather History Graph

Daily Weather History Graph

Search for Another Location

Airport:

Trip Planner

Search our weather history database for the weather conditions in past years. The results will help you decide how hot, cold, wet, or windy it might be!

Date:

Astronomy

Nov. 15, 2012 Rise Set
Actual Time 6:39 AM EST 5:30 PM EST
Civil Twilight 6:15 AM EST 5:54 PM EST
Nautical Twilight 5:47 AM EST 6:22 PM EST
Astronomical Twilight 5:19 AM EST 6:50 PM EST
Moon 8:27 AM EST (11/15) 7:26 PM EST (11/15)
Length of Visible Light 11h 39m
Length of Day
10h 51m
Waxing Crescent, 5% of the Moon is Illuminated
Nov 15
Waxing Crescent
Nov 20
First Quarter
Nov 28
Full
Dec 6
Last Quarter
Dec 13
New

Hourly Weather History & Observations

Time (EST) Temp. Dew Point Humidity Pressure Visibility Wind Dir Wind Speed Gust Speed Precip Events Conditions
12:53 AM 73.0 °F 64.0 °F 73% 30.08 in 10.0 mi ENE 4.6 mph - N/A   Scattered Clouds
1:53 AM 73.0 °F 62.1 °F 68% 30.07 in 10.0 mi ENE 6.9 mph - N/A   Partly Cloudy
2:53 AM 72.0 °F 61.0 °F 68% 30.06 in 10.0 mi East 4.6 mph - N/A   Clear
3:53 AM 66.9 °F 64.9 °F 93% 30.05 in 10.0 mi WNW 4.6 mph - N/A   Clear
4:53 AM 66.9 °F 64.0 °F 90% 30.05 in 10.0 mi Calm Calm - N/A   Clear
5:53 AM 64.9 °F 64.0 °F 97% 30.06 in 10.0 mi NW 4.6 mph - N/A   Clear
6:53 AM 64.9 °F 64.0 °F 97% 30.06 in 10.0 mi Calm Calm - N/A   Clear
7:53 AM 71.1 °F 66.0 °F 84% 30.08 in 10.0 mi Calm Calm - N/A   Clear
8:53 AM 75.9 °F 66.9 °F 74% 30.09 in 10.0 mi NNW 4.6 mph - N/A   Clear
9:53 AM 78.1 °F 61.0 °F 56% 30.11 in 10.0 mi NE 5.8 mph - N/A   Partly Cloudy
10:53 AM 79.0 °F 62.1 °F 56% 30.10 in 10.0 mi North 8.1 mph - N/A   Clear
11:53 AM 79.0 °F 61.0 °F 54% 30.09 in 10.0 mi East 5.8 mph - N/A   Partly Cloudy
12:53 PM 79.0 °F 61.0 °F 54% 30.06 in 10.0 mi ENE 8.1 mph - N/A   Clear
1:53 PM 79.0 °F 61.0 °F 54% 30.05 in 10.0 mi East 9.2 mph - N/A   Clear
2:53 PM 79.0 °F 60.1 °F 52% 30.04 in 10.0 mi ENE 8.1 mph - N/A   Clear
3:53 PM 78.1 °F 61.0 °F 56% 30.04 in 10.0 mi ENE 8.1 mph - N/A   Clear
4:53 PM 75.9 °F 62.1 °F 62% 30.05 in 10.0 mi ENE 5.8 mph - N/A   Scattered Clouds
5:53 PM 72.0 °F 69.1 °F 91% 30.06 in 10.0 mi ESE 4.6 mph - 0.02 in Rain Light Rain
6:53 PM 73.9 °F 69.1 °F 85% 30.06 in 10.0 mi North 6.9 mph - 0.00 in   Mostly Cloudy
7:53 PM 73.0 °F 69.1 °F 87% 30.08 in 10.0 mi NNW 4.6 mph - 0.01 in Rain Light Rain
8:53 PM 72.0 °F 69.1 °F 91% 30.09 in 10.0 mi North 6.9 mph - 0.00 in   Partly Cloudy
9:53 PM 71.1 °F 68.0 °F 90% 30.09 in 10.0 mi North 9.2 mph - 0.00 in   Overcast
10:53 PM 69.1 °F 66.9 °F 93% 30.09 in 10.0 mi NNW 10.4 mph - N/A   Scattered Clouds
11:53 PM 68.0 °F 66.9 °F 96% 30.07 in 10.0 mi NNW 6.9 mph - N/A   Mostly Cloudy